EW7682 Weather Reports


time (UTC)temp
F
wind
direction
speed
knots
gust
knots
rain 1hr
in
rain 24hr
in
rain mn
in
humidity
%
barometer
mb
20260504201532 65 1.7 10.4 0.00 0.00 0.00 54 1012.8
20260504200030 65 0.9 13.0 0.00 0.00 0.00 56 1012.7
20260504194527 65 1.7 13.0 0.00 0.00 0.00 55 1013.0
20260504193024 66 0.9 9.6 0.00 0.00 0.00 55 1013.2
20260504191523 66 3.5 11.3 0.00 0.00 0.00 53 1013.2
20260504190017 67 0.9 8.7 0.00 0.00 0.00 52 1013.3
20260504184515 67 0.0 8.7 0.00 0.00 0.00 51 1013.4
20260504183011 67 0.0 10.4 0.00 0.00 0.00 50 1013.5
20260504181509 67 0.0 8.7 0.00 0.00 0.00 49 1013.5
20260504180009 68 0.0 6.1 0.00 0.00 0.00 48 1013.7
20260504174603 67 0.0 7.8 0.00 0.00 0.00 51 1013.7
20260504173058 66 0.0 9.6 0.00 0.00 0.00 51 1013.9
20260504171554 67 0.9 9.6 0.00 0.00 0.00 50 1014.1
20260504100109 48 0.0 0.0 0.00 0.00 0.00 67 1016.5
20260504081550 48 0.0 0.0 0.00 0.00 0.00 58 1015.8
20260504050011 49 0.0 0.0 0.00 0.00 0.00 63 1015.0
20260504044505 50 0.0 0.0 0.00 0.00 0.00 61 1014.9
20260504043003 50 0.0 0.0 0.00 0.00 0.00 61 1014.9
20260504041603 50 0.0 0.0 0.00 0.00 0.00 61 1014.7
20260504040055 50 0.0 0.0 0.00 0.00 0.00 61 1014.7
20260504034553 50 0.0 0.0 0.00 0.00 0.00 61 1014.8
20260504033052 50 0.0 0.0 0.00 0.00 0.00 60 1014.6
20260504031550 49 0.0 0.0 0.00 0.00 0.00 59 1014.7
20260504030047 47 0.0 0.0 0.00 0.00 0.00 59 1014.6
20260504024601 47 0.0 0.0 0.00 0.00 0.00 60 1014.6
20260504023045 47 0.0 0.0 0.00 0.00 0.00 57 1014.8
20260504021542 48 0.0 0.0 0.00 0.00 0.00 55 1014.8
20260504020042 48 0.0 0.0 0.00 0.00 0.00 54 1014.7
20260504014536 50 0.0 0.0 0.00 0.00 0.00 49 1014.6
20260504013036 50 0.0 0.0 0.00 0.00 0.00 47 1014.5
20260504011530 51 0.0 0.0 0.00 0.00 0.00 46 1014.3
20260504010026 52 0.0 0.0 0.00 0.00 0.00 41 1014.1
20260504004528 53 0.0 0.0 0.00 0.00 0.00 40 1013.9
20260504003028 53 0.0 0.0 0.00 0.00 0.00 39 1013.6
20260504001521 55 0.0 0.0 0.00 0.00 0.00 36 1013.4
20260504000045 56 0.0 0.0 0.00 0.00 0.00 35 1013.3
20260503234515 57 0.0 0.0 0.00 0.00 0.00 33 1013.1
20260503233012 57 0.0 0.9 0.00 0.00 0.00 32 1012.9
20260503231511 58 0.0 0.9 0.00 0.00 0.00 31 1012.8
20260503230011 60 0.0 0.0 0.00 0.00 0.00 29 1012.7
20260503224506 60 0.0 1.7 0.00 0.00 0.00 29 1012.7
20260503223005 60 0.0 0.0 0.00 0.00 0.00 28 1012.5
20260503221502 60 0.0 8.7 0.00 0.00 0.00 29 1012.5
20260503220100 60 0.0 6.1 0.00 0.00 0.00 28 1012.5
20260503214558 60 0.0 7.0 0.00 0.00 0.00 30 1012.5
20260503213057 60 0.0 0.0 0.00 0.00 0.00 31 1012.5
20260503211608 60 0.0 3.5 0.00 0.00 0.00 31 1012.3
20260503210048 59 0.0 4.3 0.00 0.00 0.00 31 1012.2
20260503204548 59 0.0 8.7 0.00 0.00 0.00 32 1012.3
20260503203103 59 0.0 8.7 0.00 0.00 0.00 32 1012.2